Regional Weather Roundup
Issued by NWS Upton, NY

Current Version | Previous Version | Text Only | Print | Product List | Glossary On
Versions: 1 2 3 4 5 6 7 8 9 10 11 12 13 14 15 16 17 18 19 20 21 22 23 24 25 26 27 28 29 30 31 32 33 34 35 36 37 38 39 40 41 42 43 44 45 46 47 48 49 50
000
ASUS41 KOKX 020804
RWROKX

REGIONAL WEATHER ROUNDUP
NATIONAL WEATHER SERVICE NEW YORK NY
400 AM EDT WED SEP 02 2015

NOTE: "FAIR" INDICATES FEW OR NO CLOUDS BELOW 12,000 FEET WITH NO
SIGNIFICANT WEATHER AND/OR OBSTRUCTIONS TO VISIBILITY.

NYZ071-072-176-178-NJZ106-104-020900-
NEW YORK CITY METRO AREA


CITY           SKY/WX    TMP DP  RH WIND       PRES   REMARKS
CENTRAL PARK   CLEAR     75  64  68 CALM      30.05F
LAGUARDIA APRT CLEAR     76  65  68 CALM      30.02F
KENNEDY INTL   CLEAR     73  69  87 SW3       30.04S
NEWARK/LIBERTY CLEAR     74  66  76 CALM      30.02F
BRNX BOT. GARD   N/A     75  64  69 W5        30.03F
TETERBORO      CLEAR     70  64  81 CALM      30.02S
$$

NYZ177-179-078>081-020900-
LONG ISLAND NEW YORK

CITY           SKY/WX    TMP DP  RH WIND       PRES   REMARKS
FARMINGDALE    CLEAR     72  69  90 CALM      30.03F FOG
ISLIP          CLEAR     68  66  93 CALM      30.02S
SHIRLEY        FOG       64  63  96 CALM      30.04S VSB 1/2
WESTHAMPTON    FOG       62  61  96 CALM      30.05F VSB<1/4
MONTAUK POINT    N/A     71  68  90 CALM      30.05S
$$

NYZ052-065-067-020900-
HUDSON VALLEY

CITY           SKY/WX    TMP DP  RH WIND       PRES   REMARKS
WHITE PLAINS   CLEAR     67  64  90 CALM      30.03F
NEWBURGH       CLEAR     64  63  94 CALM      30.05S
MONTGOMERY     PTCLDY    61  60  97 CALM      30.03F FOG
POUGHKEEPSIE   CLEAR     62  60  93 CALM      30.02F
ALBANY         CLEAR     66  62  87 SW3       30.03S
$$

NJZ001-105-106-008-010-013-015-019>022-104-020900-
NEW JERSEY

CITY           SKY/WX    TMP DP  RH WIND       PRES   REMARKS
NEWARK/LIBERTY CLEAR     74  66  76 CALM      30.02F
TETERBORO      CLEAR     70  64  81 CALM      30.02S
CALDWELL       CLEAR     66  62  87 CALM      30.04F
MORRISTOWN     FOG       59  55  88 CALM      30.04S VSB<1/4
SOMERVILLE     CLEAR     64  61  90 NW3       30.02F FOG
SUSSEX         CLEAR     60  58  92 CALM      30.05F FOG
ANDOVER          N/A     62  61  96 CALM      30.05F
TRENTON        CLEAR     69  65  86 CALM      30.03S
MILLVILLE      FOG       68  67  96 CALM      30.02S VSB 1/4
ATLANTIC CITY  FOG       68  66  94 CALM      30.02S VSB 1/4
WRIGHTSTOWN    NOT AVBL
TOMS RIVER     CLOUDY    68  66  94 CALM      30.03F VSB<1/4
BELMAR         MOCLDY    68  61  77 CALM      30.03F
$$

PAZ047>061-062-071-020900-
EASTERN PENNSYLVANIA

CITY           SKY/WX    TMP DP  RH WIND       PRES   REMARKS
PHILADELPHIA   CLEAR     74  70  87 CALM      30.03S
ALLENTOWN      CLEAR     65  63  93 CALM      30.04F FOG
SCRANTON       CLEAR     65  61  87 CALM      30.06F
$$

CTZ002-004>006-009-010-012-RIZ004-006-007-MAZ004-011-015-020900-
SOUTHERN NEW ENGLAND
 IN CT

CITY           SKY/WX    TMP DP  RH WIND       PRES   REMARKS
BRADLEY INTL   PTCLDY    63  60  90 CALM      30.02S
HARTFORD       CLEAR     67  65  93 CALM      30.02F
DANBURY        CLEAR     62  58  86 CALM      30.05F FOG
WTRBRY/OXFORD  CLEAR     63  57  82 CALM      30.06S
BRIDGEPORT     CLEAR     70  65  84 CALM      30.03S
MERIDEN        PTCLDY    63  60  90 CALM      30.03S FOG
NEW HAVEN      CLEAR     66  64  93 CALM      30.03F FOG
CHESTER        NOT AVBL
GROTON         PTCLDY    63  63 100 CALM      30.02F FOG
WILLIMANTIC    FOG       62  60  93 CALM      30.04F VSB 3/4

 IN RI

CITY           SKY/WX    TMP DP  RH WIND       PRES   REMARKS
PROVIDENCE     CLEAR     64  62  93 S3        30.03F
BLOCK ISLAND   CLEAR     66  64  94 SW5       30.04S
WESTERLY       CLEAR     60  58  92 CALM      30.04F

 IN MA

CITY           SKY/WX    TMP DP  RH WIND       PRES   REMARKS
BOSTON         CLEAR     68  62  81 SW10      30.01S
WORCESTER      CLEAR     64  61  90 W10       30.04F
WESTFIELD      FOG       60  59  96 CALM      30.03S VSB 1
PROVINCETOWN     N/A     66  61  82 SW9       30.02F
NANTUCKET      CLEAR     63  60  90 S5        30.04F
$$

ANZ330-335-338-340-345-350-353-355-020900-
COASTAL MARINE OBSERVATIONS


STATION/POSITION TIME  SKY/WX   TEMP    WIND        PRES    VSBY  WAVE
                                AIR SEA DIR/SP/G                  HT/PER
                 (UTC)          (F)     (DEG/KT/KT) (MB)    (MI)  (FT/S)
NY HARB ENTRANCE 0650            76 76  210/  4/  4 1016.8          1/ 9
4S FIRE IS       NOT AVBL
20S FIRE ISLAND  0650            74 75  200/  4/  4 1017.0          1/ 8
GREAT SOUTH BAY  0730            75 78  250/  6/  6   N/A
23SW MTP         0750            72 72  200/  4/  4 1016.8          2/ 8
HUDSON CANYON    NOT AVBL
KINGS POINT      0700            73 74  190/  3/  4 1016.3
EXECUTION ROCKS  0700            73     160/  2/  6   N/A
CENTRAL LI SOUND NOT AVBL
EASTERN LI SOUND 0700            71 70  190/  2/  2   N/A
ROBBINS REEF     0700            75     230/  4/  5 1015.8
$$


>>>>>>>>>>>>>>>>>>>>>>>>>>>> KEY <<<<<<<<<<<<<<<<<<<<<<<<<<<
>                                                          <
>     SKY/WX - SKY CONDITION/PRESENT WEATHER               <
>     TMP    - TEMPERATURE IN FAHRENHEIT                   <
>     DP     - DEWPOINT IN FAHRENHEIT                      <
>     RH     - RELATIVE HUMIDITY IN PERCENT                <
>     WIND   - DIRECTION AND SPEED IN MPH                  <
>     PRES   - MEAN SEA LEVEL PRESSURE IN INCHES OF HG     <
>     WCI    - WIND CHILL INDEX                            <
>     VSB    - VISIBILITY IN MILES                         <
>     HX     - HEAT INDEX                                  <
>     TC     - TEMPERATURE IN CELSIUS                      <
>     VRB    - VARIABLE WIND DIRECTION                     <
>                                                          <
>>>>>>>>>>>>>>>>>>>>>>>>>>>> KEY <<<<<<<<<<<<<<<<<<<<<<<<<<<




USA.gov is the U.S. government's official web portal to all federal, state and local government web resources and services.